Salinas, CA

1:57 PM PST on November 11, 2019 (GMT -0800)
Salinas Municipal

Weather History for KSNS - October, 2019

Change the Weather History Date:

Sunday, October 20, 2019

  Actual Average Record
Temperature  
Mean Temperature 63 °F 61 °F  
Max Temperature 74 °F 73 °F 97 °F (1964)
Min Temperature 52 °F 49 °F 34 °F (1949)
Degree Days  
Heating Degree Days 2 5  
Month to date heating degree days 101 76  
Since 1 July heating degree days 201 271  
Cooling Degree Days 0 1  
Month to date cooling degree days 9 20  
Year to date cooling degree days 245 125  
Growing Degree Days 12 (Base 50)    
Moisture  
Dew Point 51 °F    
Average Humidity 70    
Maximum Humidity 100    
Minimum Humidity 40    
Precipitation  
Precipitation 0.00 in 0.02 in 0.22 in (1970)
Month to date precipitation 0.00 0.31  
Year to date precipitation 9.18 9.23  
Sea Level Pressure  
Sea Level Pressure 30.10 in    
Wind  
Wind Speed 6 mph (NW)    
Max Wind Speed 16 mph    
Max Gust Speed 19 mph    
Visibility 6 miles    
Events Fog    
T = Trace of Precipitation, MM = Missing Value Source: NWS Daily Summary

Daily Weather History Graph

Daily Weather History Graph

Search for Another Location

Airport or City:

Astronomy

Oct. 20, 2019 Rise Set
Actual Time 7:18 AM PDT 6:23 PM PDT
Civil Twilight 6:52 AM PDT 6:49 PM PDT
Nautical Twilight 6:21 AM PDT 7:19 PM PDT
Astronomical Twilight 5:51 AM PDT 7:49 PM PDT
Moon 11:44 PM PDT (10/20) 1:44 PM PDT (10/20)
Length of Visible Light 11h 57m
Length of Day
11h 05m
Waning Gibbous, 58% of the Moon is Illuminated
Oct 20
Waning Gibbous
Oct 21
Last Quarter
Oct 27
New
Nov 4
First Quarter
Nov 12
Full

Hourly Weather History & Observations

Time (PDT) Temp. Dew Point Humidity Pressure Visibility Wind Dir Wind Speed Gust Speed Precip Events Conditions
12:53 AM 55.9 °F 52.0 °F 87% 30.10 in 9.0 mi NNW 4.6 mph - N/A   Clear
1:41 AM 55.9 °F 52.0 °F 87% 30.07 in 9.0 mi North 4.6 mph - N/A   Scattered Clouds
1:50 AM 55.4 °F 51.8 °F 88% 30.07 in 8.0 mi North 5.8 mph - N/A   Mostly Cloudy
1:53 AM 55.9 °F 52.0 °F 87% 30.10 in 8.0 mi North 4.6 mph - N/A   Mostly Cloudy
2:30 AM 55.0 °F 52.0 °F 89% 30.06 in 5.0 mi North 5.8 mph - N/A   Mostly Cloudy
2:53 AM 55.0 °F 53.1 °F 93% 30.10 in 5.0 mi NNW 5.8 mph - N/A   Overcast
3:27 AM 55.0 °F 53.1 °F 93% 30.06 in 1.8 mi NW 6.9 mph - N/A   Overcast
3:46 AM 55.0 °F 53.1 °F 93% 30.06 in 0.8 mi NNW 5.8 mph - N/A   Overcast
3:53 AM 54.0 °F 53.1 °F 97% 30.09 in 1.2 mi NW 5.8 mph - N/A   Overcast
4:04 AM 54.0 °F 53.1 °F 97% 30.06 in 0.5 mi NNW 5.8 mph - N/A Fog Fog
4:31 AM 54.0 °F 52.0 °F 93% 30.07 in 0.2 mi WNW 5.8 mph - N/A Fog Fog
4:53 AM 53.1 °F 52.0 °F 96% 30.09 in 0.2 mi West 6.9 mph - N/A Fog Fog
5:08 AM 53.1 °F 51.1 °F 93% 30.07 in 0.5 mi WNW 4.6 mph - N/A Fog Fog
5:53 AM 52.0 °F 51.1 °F 97% 30.09 in 0.5 mi Calm Calm - N/A Fog Fog
6:53 AM 52.0 °F 50.0 °F 93% 30.11 in 0.5 mi West 4.6 mph - N/A Fog Fog
7:50 AM 51.8 °F 50.0 °F 94% 30.10 in 0.2 mi Calm Calm - N/A Fog Fog
7:53 AM 52.0 °F 50.0 °F 93% 30.12 in 0.2 mi ENE 3.5 mph - N/A Fog Fog
8:21 AM 52.0 °F 52.0 °F 100% 30.10 in 0.8 mi Calm Calm - N/A   Mist
8:30 AM 53.1 °F 52.0 °F 96% 30.11 in 2.0 mi Calm Calm - N/A   Mostly Cloudy
8:39 AM 53.1 °F 52.0 °F 96% 30.11 in 4.0 mi Calm Calm - N/A   Scattered Clouds
8:53 AM 53.1 °F 53.1 °F 100% 30.14 in 5.0 mi Calm Calm - N/A   Partly Cloudy
9:53 AM 60.1 °F 57.9 °F 93% 30.15 in 10.0 mi Calm Calm - N/A   Clear
10:53 AM 66.9 °F 54.0 °F 63% 30.16 in 10.0 mi NW 10.4 mph - N/A   Clear
11:53 AM 68.0 °F 54.0 °F 61% 30.16 in 10.0 mi WNW 5.8 mph - N/A   Clear
12:53 PM 71.1 °F 53.1 °F 53% 30.14 in 10.0 mi WNW 9.2 mph - N/A   Clear
1:53 PM 73.0 °F 51.1 °F 46% 30.12 in 10.0 mi WNW 12.7 mph - N/A   Clear
2:53 PM 72.0 °F 48.0 °F 43% 30.10 in 10.0 mi West 15.0 mph - N/A   Clear
3:53 PM 71.1 °F 46.0 °F 41% 30.10 in 10.0 mi WNW 15.0 mph - N/A   Clear
4:53 PM 69.1 °F 44.1 °F 40% 30.10 in 10.0 mi NW 8.1 mph - N/A   Clear
5:53 PM 66.9 °F 44.1 °F 44% 30.10 in 10.0 mi WNW 8.1 mph - N/A   Clear
6:53 PM 63.0 °F 45.0 °F 52% 30.10 in 10.0 mi West 8.1 mph - N/A   Clear
7:53 PM 63.0 °F 45.0 °F 52% 30.12 in 10.0 mi NNW 5.8 mph - N/A   Clear
8:53 PM 61.0 °F 46.0 °F 58% 30.12 in 10.0 mi North 9.2 mph - N/A   Clear
9:53 PM 59.0 °F 48.9 °F 69% 30.14 in 10.0 mi North 6.9 mph - N/A   Clear
10:53 PM 57.9 °F 48.0 °F 70% 30.14 in 10.0 mi NNE 5.8 mph - N/A   Clear
11:53 PM 55.9 °F 46.9 °F 72% 30.14 in 10.0 mi SW 3.5 mph - N/A   Clear